Weather History for K0E0 - July, 2014

Change the Weather History Date:

Monday, July 7, 2014

  Actual Average (KABQ) Record (KABQ)
Temperature  
Mean Temperature 69 °F 79 °F  
Max Temperature 86 °F 91 °F 102 °F (1973)
Min Temperature 52 °F 66 °F 45 °F (1915)
Degree Days  
Heating Degree Days 0 0  
Month to date heating degree days 0  
Since 1 June heating degree days 4  
Since 1 July heating degree days 0  
Cooling Degree Days 4 14  
Month to date cooling degree days 94  
Year to date cooling degree days 494  
Since 1 June cooling degree days 396  
Growing Degree Days 19 (Base 50)    
Moisture  
Dew Point 49 °F    
Average Humidity 56    
Maximum Humidity 93    
Minimum Humidity 20    
Precipitation  
Precipitation 0.00 in 0.04 in 0.56 in (1986)
Month to date precipitation 0.26  
Year to date precipitation 3.46  
Snow  
Snow 0.00 in - - ()
Month to date snowfall  
Since 1 June snowfall  
Since 1 July snowfall  
Snow Depth -    
Sea Level Pressure  
Sea Level Pressure 30.22 in    
Wind  
Wind Speed 3 mph (SSE)    
Max Wind Speed 10 mph    
Max Gust Speed 17 mph    
Visibility 10 miles    
Events      
T = Trace of Precipitation, MM = Missing Value Source: NWS Daily Summary

Daily Weather History Graph

Daily Weather History Graph

Search for Another Location

Airport or City:

Trip Planner

Search our weather history database for the weather conditions in past years. The results will help you decide how hot, cold, wet, or windy it might be!

Date:

Astronomy

Jul. 07, 2014 Rise Set
Actual Time 5:56 AM MDT 8:21 PM MDT
Civil Twilight 5:27 AM MDT 8:50 PM MDT
Nautical Twilight 4:51 AM MDT 9:26 PM MDT
Astronomical Twilight 4:11 AM MDT 10:06 PM MDT
Moon 3:32 PM MDT (7/7) 1:44 AM MDT (7/7)
Length of Visible Light 15h 23m
Length of Day
14h 24m
Waxing Gibbous, 73% of the Moon is Illuminated
Jul 7
Waxing Gibbous
Jul 12
Full
Jul 18
Last Quarter
Jul 26
New
Aug 3
First Quarter

Hourly Weather History & Observations

Time (MDT) Temp. Dew Point Humidity Pressure Visibility Wind Dir Wind Speed Gust Speed Precip Events Conditions
12:15 AM 63.0 °F 56.5 °F 79% 30.28 in 10.0 mi Calm Calm - N/A   Clear
12:35 AM 62.8 °F 56.1 °F 79% 30.28 in 10.0 mi Calm Calm - N/A   Clear
12:55 AM 61.9 °F 55.9 °F 81% 30.28 in 10.0 mi ESE 4.6 mph - N/A   Clear
1:15 AM 61.7 °F 55.8 °F 81% 30.27 in 10.0 mi Calm Calm - N/A   Clear
1:35 AM 60.8 °F 55.4 °F 82% 30.27 in 10.0 mi Calm Calm - N/A   Clear
1:55 AM 58.6 °F 55.4 °F 89% 30.26 in 10.0 mi NW 3.5 mph - N/A   Clear
2:15 AM 58.1 °F 54.9 °F 89% 30.26 in 10.0 mi NNW 4.6 mph - N/A   Clear
2:35 AM 57.4 °F 54.5 °F 90% 30.26 in 10.0 mi NNW 3.5 mph - N/A   Clear
2:55 AM 56.8 °F 54.1 °F 91% 30.26 in 10.0 mi NW 4.6 mph - N/A   Clear
3:15 AM 56.3 °F 53.6 °F 91% 30.26 in 10.0 mi NW 3.5 mph - N/A   Clear
3:35 AM 55.9 °F 53.6 °F 92% 30.25 in 10.0 mi Calm Calm - N/A   Clear
3:55 AM 55.6 °F 53.2 °F 92% 30.25 in 10.0 mi Calm Calm - N/A   Clear
4:15 AM 55.8 °F 53.6 °F 92% 30.25 in 10.0 mi Calm Calm - N/A   Clear
4:35 AM 55.2 °F 52.7 °F 91% 30.25 in 10.0 mi Calm Calm - N/A   Clear
4:55 AM 55.0 °F 52.7 °F 92% 30.25 in 10.0 mi Calm Calm - N/A   Clear
5:15 AM 54.9 °F 52.5 °F 92% 30.25 in 10.0 mi Calm Calm - N/A   Clear
5:35 AM 53.4 °F 51.1 °F 92% 30.26 in 10.0 mi Calm Calm - N/A   Clear
5:55 AM 52.9 °F 50.5 °F 92% 30.26 in 10.0 mi North 3.5 mph - N/A   Clear
6:15 AM 52.9 °F 50.9 °F 93% 30.26 in 10.0 mi NNE 3.5 mph - N/A   Clear
6:35 AM 54.3 °F 52.0 °F 92% 30.26 in 10.0 mi Calm Calm - N/A   Clear
6:55 AM 55.4 °F 52.7 °F 91% 30.27 in 10.0 mi Calm Calm - N/A   Clear
7:15 AM 56.5 °F 53.1 °F 88% 30.27 in 10.0 mi Calm Calm - N/A   Clear
7:35 AM 58.1 °F 53.8 °F 86% 30.27 in 10.0 mi Calm Calm - N/A   Clear
7:55 AM 59.9 °F 55.0 °F 84% 30.27 in 10.0 mi Calm Calm - N/A   Clear
8:15 AM 61.7 °F 55.6 °F 80% 30.27 in 10.0 mi Calm Calm - N/A   Clear
8:35 AM 63.7 °F 56.7 °F 78% 30.27 in 10.0 mi Calm Calm - N/A   Clear
8:55 AM 66.2 °F 57.0 °F 72% 30.27 in 10.0 mi Calm Calm - N/A   Clear
9:15 AM 66.7 °F 57.0 °F 71% 30.27 in 10.0 mi Calm Calm - N/A   Clear
9:35 AM 68.9 °F 55.9 °F 63% 30.26 in 10.0 mi Calm Calm - N/A   Clear
10:15 AM 73.4 °F 56.1 °F 55% 30.26 in 10.0 mi Calm Calm - N/A   Clear
10:35 AM 74.8 °F 54.1 °F 48% 30.26 in 10.0 mi Calm Calm - N/A   Clear
11:15 AM 77.7 °F 53.1 °F 42% 30.25 in 10.0 mi Calm Calm - N/A   Clear
11:35 AM 78.6 °F 47.1 °F 33% 30.25 in 10.0 mi Calm Calm - N/A   Clear
12:15 PM 80.1 °F 44.6 °F 29% 30.24 in 10.0 mi Calm Calm - N/A   Clear
12:35 PM 80.6 °F 43.3 °F 27% 30.24 in 10.0 mi Calm Calm - N/A   Clear
12:55 PM 80.6 °F 42.6 °F 26% 30.23 in 10.0 mi SW 4.6 mph - N/A   Clear
1:15 PM 81.9 °F 43.9 °F 26% 30.23 in 10.0 mi South 8.1 mph - N/A   Clear
1:35 PM 82.4 °F 43.9 °F 26% 30.22 in 10.0 mi SSE 8.1 mph - N/A   Clear
1:55 PM 82.0 °F 45.0 °F 27% 30.21 in 10.0 mi Calm Calm - N/A   Clear
2:15 PM 83.5 °F 46.0 °F 27% 30.20 in 10.0 mi South 6.9 mph - N/A   Clear
2:35 PM 82.6 °F 45.7 °F 27% 30.20 in 10.0 mi SSE 10.4 mph - N/A   Clear
2:55 PM 83.3 °F 43.7 °F 25% 30.19 in 10.0 mi SSW 10.4 mph 17.3 mph N/A   Clear
3:15 PM 84.2 °F 43.2 °F 24% 30.19 in 10.0 mi SSE 4.6 mph - N/A   Clear
3:35 PM 84.4 °F 42.4 °F 23% 30.18 in 10.0 mi South 10.4 mph - N/A   Clear
3:55 PM 85.5 °F 42.8 °F 22% 30.16 in 10.0 mi South 9.2 mph - N/A   Clear
4:15 PM 85.5 °F 42.4 °F 22% 30.16 in 10.0 mi SSW 6.9 mph 17.3 mph N/A   Clear
4:35 PM 86.0 °F 42.6 °F 22% 30.15 in 10.0 mi South 10.4 mph - N/A   Clear
4:55 PM 85.5 °F 41.5 °F 21% 30.14 in 10.0 mi SE 5.8 mph - N/A   Clear
5:15 PM 84.9 °F 39.4 °F 20% 30.14 in 10.0 mi South 9.2 mph - N/A   Clear
5:35 PM 84.4 °F 38.8 °F 20% 30.13 in 10.0 mi SSE 6.9 mph - N/A   Clear
5:55 PM 84.2 °F 40.8 °F 22% 30.13 in 10.0 mi South 6.9 mph - N/A   Clear
6:15 PM 83.8 °F 40.5 °F 22% 30.14 in 10.0 mi SSE 4.6 mph - N/A   Clear
6:35 PM 83.5 °F 39.6 °F 21% 30.14 in 10.0 mi South 4.6 mph - N/A   Clear
6:55 PM 81.9 °F 43.7 °F 26% 30.14 in 10.0 mi South 5.8 mph - N/A   Clear
7:15 PM 81.0 °F 46.2 °F 29% 30.14 in 10.0 mi SE 5.8 mph - N/A   Clear
7:35 PM 79.0 °F 47.5 °F 33% 30.14 in 10.0 mi SE 5.8 mph - N/A   Clear
7:55 PM 77.0 °F 47.8 °F 36% 30.14 in 10.0 mi SE 6.9 mph - N/A   Clear
8:15 PM 75.7 °F 46.8 °F 36% 30.16 in 10.0 mi SE 8.1 mph - N/A   Clear
8:55 PM 73.8 °F 44.6 °F 35% 30.17 in 10.0 mi SE 10.4 mph - N/A   Clear
9:15 PM 72.3 °F 46.0 °F 39% 30.17 in 10.0 mi SE 9.2 mph - N/A   Clear
9:35 PM 71.1 °F 47.1 °F 42% 30.18 in 10.0 mi SE 9.2 mph - N/A   Clear
9:55 PM 70.2 °F 47.5 °F 44% 30.19 in 10.0 mi SE 8.1 mph - N/A   Clear
10:15 PM 69.4 °F 47.5 °F 45% 30.20 in 10.0 mi SE 8.1 mph - N/A   Clear
10:35 PM 68.9 °F 47.7 °F 47% 30.20 in 10.0 mi SE 8.1 mph - N/A   Clear
11:15 PM 64.2 °F 52.7 °F 66% 30.22 in 10.0 mi SSW 6.9 mph - N/A   Clear
11:35 PM 63.5 °F 52.5 °F 67% 30.22 in 10.0 mi South 5.8 mph - N/A   Clear
11:55 PM 61.9 °F 53.2 °F 73% 30.21 in 10.0 mi South 5.8 mph - N/A   Clear